Weather History for Chariton, IA

Change the Weather History Date:

Thursday, December 6, 2012

  Actual Average Record
Temperature  
Mean Temperature 48 °F -  
Max Temperature 53 °F 38 °F 64 °F (1951)
Min Temperature 44 °F 19 °F -6 °F (1950)
Degree Days  
Heating Degree Days 16    
Moisture  
Dew Point 36 °F    
Average Humidity 64    
Maximum Humidity 81    
Minimum Humidity 54    
Precipitation  
Precipitation 0.00 in - - ()
Sea Level Pressure  
Sea Level Pressure 29.95 in    
Wind  
Wind Speed 11 mph (SSW)    
Max Wind Speed 17 mph    
Max Gust Speed 24 mph    
Visibility 10 miles    
Events Rain    
Averages and records for this station are not official NWS values.
T = Trace of Precipitation, MM = Missing Value Source: NWS Daily Summary

Daily Weather History Graph

Daily Weather History Graph

Search for Another Location

Airport:

Trip Planner

Search our weather history database for the weather conditions in past years. The results will help you decide how hot, cold, wet, or windy it might be!

Date:

Astronomy

Dec. 06, 2012 Rise Set
Actual Time 7:24 AM CST 4:44 PM CST
Civil Twilight 6:53 AM CST 5:15 PM CST
Nautical Twilight 6:19 AM CST 5:50 PM CST
Astronomical Twilight 5:45 AM CST 6:23 PM CST
Moon No Moon Rise 12:14 PM CST (12/6)
Length of Visible Light 10h 22m
Length of Day
9h 20m
Waning Gibbous, 49% of the Moon is Illuminated
Dec 6
Waning Gibbous
Dec 13
New
Dec 19
First Quarter
Dec 28
Full
Jan 4
Last Quarter

Hourly Weather History & Observations

Time (CST) Temp. Windchill Dew Point Humidity Pressure Visibility Wind Dir Wind Speed Gust Speed Precip Events Conditions
12:15 AM 48.2 °F - 35.6 °F 62% 30.01 in 10.0 mi SSE 17.3 mph - N/A   Clear
12:35 AM 48.2 °F - 35.6 °F 62% 30.01 in 10.0 mi South 16.1 mph - N/A   Clear
12:55 AM 48.2 °F - 35.6 °F 62% 30.01 in 10.0 mi South 13.8 mph - N/A   Clear
1:15 AM 48.2 °F - 35.6 °F 62% 30.01 in 10.0 mi South 12.7 mph - N/A   Clear
1:35 AM 48.2 °F - 35.6 °F 62% 30.01 in 10.0 mi South 11.5 mph - N/A   Clear
1:55 AM 46.4 °F 41.1 °F 35.6 °F 66% 30.01 in 10.0 mi South 11.5 mph - N/A   Clear
2:15 AM 48.2 °F - 35.6 °F 62% 30.00 in 10.0 mi South 11.5 mph - N/A   Clear
2:35 AM 48.2 °F - 35.6 °F 62% 30.00 in 10.0 mi South 10.4 mph - N/A   Clear
2:55 AM 46.4 °F 41.5 °F 35.6 °F 66% 29.99 in 10.0 mi SSE 10.4 mph - N/A   Clear
3:15 AM 48.2 °F - 35.6 °F 62% 29.99 in 10.0 mi South 11.5 mph - N/A   Scattered Clouds
3:35 AM 48.2 °F - 35.6 °F 62% 29.98 in 10.0 mi SSE 8.1 mph - N/A   Scattered Clouds
3:55 AM 48.2 °F - 35.6 °F 62% 29.97 in 10.0 mi South 12.7 mph - N/A   Scattered Clouds
4:15 AM 48.2 °F - 33.8 °F 58% 29.97 in 10.0 mi South 13.8 mph 19.6 mph N/A   Scattered Clouds
4:35 AM 48.2 °F - 33.8 °F 58% 29.97 in 10.0 mi South 15.0 mph 19.6 mph N/A   Clear
4:55 AM 48.2 °F - 33.8 °F 58% 29.97 in 10.0 mi South 15.0 mph - N/A   Clear
5:15 AM 48.2 °F - 33.8 °F 58% 29.96 in 10.0 mi South 16.1 mph 20.7 mph N/A   Clear
5:35 AM 48.2 °F - 32.0 °F 54% 29.95 in 10.0 mi South 16.1 mph - N/A   Clear
5:55 AM 48.2 °F - 32.0 °F 54% 29.95 in 10.0 mi South 15.0 mph 24.2 mph N/A   Clear
6:15 AM 48.2 °F - 32.0 °F 54% 29.95 in 10.0 mi South 11.5 mph - N/A   Clear
6:35 AM 48.2 °F - 32.0 °F 54% 29.95 in 10.0 mi South 12.7 mph - N/A   Clear
6:55 AM 48.2 °F - 32.0 °F 54% 29.96 in 10.0 mi South 11.5 mph - N/A   Clear
7:15 AM 46.4 °F 40.7 °F 33.8 °F 62% 29.96 in 10.0 mi South 12.7 mph - N/A   Clear
7:35 AM 46.4 °F 40.7 °F 33.8 °F 62% 29.96 in 10.0 mi South 12.7 mph - N/A   Clear
7:55 AM 46.4 °F 40.7 °F 33.8 °F 62% 29.96 in 10.0 mi South 12.7 mph - N/A   Clear
8:15 AM 46.4 °F 40.1 °F 33.8 °F 62% 29.95 in 10.0 mi South 15.0 mph - N/A   Clear
8:35 AM 46.4 °F 40.1 °F 33.8 °F 62% 29.96 in 10.0 mi South 15.0 mph - N/A   Clear
8:55 AM 46.4 °F 40.4 °F 33.8 °F 62% 29.96 in 10.0 mi South 13.8 mph 19.6 mph N/A   Clear
9:15 AM 48.2 °F - 33.8 °F 58% 29.95 in 10.0 mi South 13.8 mph - N/A   Clear
9:35 AM 48.2 °F - 35.6 °F 62% 29.95 in 10.0 mi South 13.8 mph - N/A   Clear
9:55 AM 48.2 °F - 35.6 °F 62% 29.95 in 10.0 mi South 13.8 mph 18.4 mph N/A   Clear
10:15 AM 48.2 °F - 35.6 °F 62% 29.95 in 10.0 mi South 12.7 mph - N/A   Clear
10:35 AM 48.2 °F - 35.6 °F 62% 29.95 in 10.0 mi South 11.5 mph - N/A   Clear
10:55 AM 50.0 °F - 35.6 °F 58% 29.94 in 10.0 mi SSW 11.5 mph - N/A   Clear
11:15 AM 50.0 °F - 35.6 °F 58% 29.94 in 10.0 mi SSW 13.8 mph - N/A   Clear
11:35 AM 50.0 °F - 35.6 °F 58% 29.91 in 10.0 mi SSW 15.0 mph 18.4 mph N/A   Clear
11:55 AM 51.8 °F - 37.4 °F 58% 29.92 in 10.0 mi SSW 10.4 mph - N/A   Clear
12:15 PM 51.8 °F - 37.4 °F 58% 29.92 in 10.0 mi SW 9.2 mph - N/A   Clear
12:35 PM 51.8 °F - 37.4 °F 58% 29.91 in 10.0 mi SW 9.2 mph - N/A   Clear
12:55 PM 51.8 °F - 37.4 °F 58% 29.91 in 10.0 mi SW 8.1 mph - N/A   Clear
1:15 PM 53.6 °F - 39.2 °F 58% 29.91 in 10.0 mi WSW 10.4 mph - N/A   Clear
1:35 PM 53.6 °F - 37.4 °F 54% 29.91 in 10.0 mi WSW 6.9 mph - N/A   Clear
1:55 PM 51.8 °F - 37.4 °F 58% 29.91 in 10.0 mi WSW 6.9 mph - N/A   Scattered Clouds
2:15 PM 51.8 °F - 37.4 °F 58% 29.91 in 10.0 mi SW 4.6 mph - N/A   Scattered Clouds
2:35 PM 53.6 °F - 37.4 °F 54% 29.90 in 10.0 mi West 4.6 mph - N/A   Scattered Clouds
2:55 PM 53.6 °F - 37.4 °F 54% 29.91 in 10.0 mi Calm Calm - N/A   Scattered Clouds
3:15 PM 53.6 °F - 37.4 °F 54% 29.91 in 10.0 mi West 3.5 mph - N/A   Mostly Cloudy
3:35 PM 53.6 °F - 37.4 °F 54% 29.91 in 10.0 mi WNW 3.5 mph - N/A   Scattered Clouds
3:55 PM 51.8 °F - 37.4 °F 58% 29.91 in 10.0 mi West 3.5 mph - N/A   Mostly Cloudy
4:15 PM 51.8 °F - 37.4 °F 58% 29.92 in 10.0 mi WNW 3.5 mph - N/A   Scattered Clouds
4:35 PM 51.8 °F - 37.4 °F 58% 29.92 in 10.0 mi Calm Calm - N/A   Scattered Clouds
4:55 PM 50.0 °F - 37.4 °F 62% 29.92 in 10.0 mi North 4.6 mph - N/A   Mostly Cloudy
5:15 PM 50.0 °F - 37.4 °F 62% 29.92 in 10.0 mi North 3.5 mph - N/A   Drizzle
5:35 PM 48.2 °F - 39.2 °F 71% 29.92 in 10.0 mi North 5.8 mph - N/A   Light Drizzle
5:55 PM 48.2 °F - 37.4 °F 66% 29.94 in 10.0 mi NNW 6.9 mph 16.1 mph N/A   Overcast
6:15 PM 48.2 °F - 37.4 °F 66% 29.94 in 10.0 mi North 9.2 mph - N/A   Overcast
6:35 PM 46.4 °F 41.9 °F 37.4 °F 71% 29.95 in 10.0 mi North 9.2 mph - N/A   Overcast
7:15 PM 46.4 °F 42.9 °F 39.2 °F 76% 29.95 in 10.0 mi North 6.9 mph - N/A   Overcast
7:35 PM 44.6 °F 39.7 °F 39.2 °F 81% 29.96 in 10.0 mi North 9.2 mph - N/A   Light Drizzle
7:55 PM 44.6 °F 40.2 °F 39.2 °F 81% 29.96 in 10.0 mi North 8.1 mph - N/A   Light Drizzle
8:35 PM 44.6 °F 42.2 °F 39.2 °F 81% 29.97 in 10.0 mi North 4.6 mph - N/A   Overcast
8:55 PM 44.6 °F 42.2 °F 39.2 °F 81% 29.98 in 10.0 mi North 4.6 mph - N/A   Overcast
9:15 PM 44.6 °F 42.2 °F 39.2 °F 81% 29.98 in 10.0 mi North 4.6 mph - N/A   Light Drizzle
9:35 PM 44.6 °F 41.4 °F 39.2 °F 81% 29.98 in 10.0 mi North 5.8 mph - N/A   Drizzle
9:55 PM 44.6 °F 43.1 °F 39.2 °F 81% 29.98 in 10.0 mi North 3.5 mph - N/A   Light Drizzle
10:15 PM 44.6 °F 41.4 °F 39.2 °F 81% 29.98 in 10.0 mi North 5.8 mph - N/A Rain Rain
10:35 PM 44.6 °F 40.7 °F 39.2 °F 81% 29.98 in 10.0 mi North 6.9 mph - N/A   Drizzle
10:55 PM 44.6 °F 40.7 °F 39.2 °F 81% 29.97 in 10.0 mi North 6.9 mph - N/A   Overcast
11:15 PM 44.6 °F 40.2 °F 37.4 °F 76% 29.97 in 10.0 mi North 8.1 mph - N/A   Overcast
11:35 PM 44.6 °F 40.2 °F 37.4 °F 76% 29.98 in 10.0 mi North 8.1 mph - N/A   Overcast
11:55 PM 44.6 °F 41.4 °F 37.4 °F 76% 29.99 in 10.0 mi North 5.8 mph - N/A   Light Drizzle